Weather reports worldwide

Advertisment
Trento, Italy (16023): temperature & dewpoint: 09.07.2018 21:00:00 - 15.07.2018 21:00:00 (CEST)Trento, Italy (16023): reduced air pressure: 09.07.2018 21:00:00 - 15.07.2018 21:00:00 (CEST)Trento, Italy (16023): precipitation: 09.07.2018 21:00:00 - 15.07.2018 21:00:00 (CEST)
Date & Time tt [°C] td [°C] ppp [hPa] rr [mm]
15.07.2018 21:00:00 - - - -
15.07.2018 20:00:00 - - - -
15.07.2018 19:00:00 - - - -
15.07.2018 18:00:00 - - - -
15.07.2018 17:00:00 - - - -
15.07.2018 16:00:00 - - - -
15.07.2018 15:00:00 - - - -
15.07.2018 14:00:00 - - - 0,0
15.07.2018 13:00:00 - - - -
15.07.2018 12:00:00 - - - -
15.07.2018 11:00:00 - - - -
15.07.2018 10:00:00 - - - -
15.07.2018 09:00:00 - - - -
15.07.2018 08:00:00 - - - 0,0
15.07.2018 07:00:00 - - - -
15.07.2018 06:00:00 - - - -
15.07.2018 05:00:00 - - - -
15.07.2018 04:00:00 - - - -
15.07.2018 03:00:00 - - - -
15.07.2018 02:00:00 - - - 0,0
15.07.2018 01:00:00 20,5 - 1016,7 -
15.07.2018 00:00:00 - - - -
14.07.2018 23:00:00 - - - -
14.07.2018 22:00:00 - - - -
14.07.2018 21:00:00 - - - -
14.07.2018 20:00:00 - - - 0,0
14.07.2018 19:00:00 - - - -
14.07.2018 18:00:00 - - - -
14.07.2018 17:00:00 - - - -
14.07.2018 16:00:00 - - - -
14.07.2018 15:00:00 - - - -
14.07.2018 14:00:00 - - - 0,0
14.07.2018 13:00:00 - - - -
14.07.2018 12:00:00 27,7 18,4 1017,2 -
14.07.2018 11:00:00 - - - -
14.07.2018 10:00:00 - - - -
14.07.2018 09:00:00 21,9 - 1019,8 -
14.07.2018 08:00:00 19,5 19,4 1019,8 0,0
14.07.2018 07:00:00 19,0 - 1019,8 -
14.07.2018 06:00:00 18,3 18,2 1019,8 -
14.07.2018 05:00:00 18,2 18,1 1019,7 -
14.07.2018 04:00:00 18,8 18,7 1019,1 -
14.07.2018 03:00:00 19,1 18,6 1019,0 -
14.07.2018 02:00:00 19,5 17,9 1019,0 0,0
14.07.2018 01:00:00 22,4 20,1 1018,2 -
14.07.2018 00:00:00 23,2 19,1 1017,6 -
13.07.2018 23:00:00 23,5 - 1017,4 -
13.07.2018 22:00:00 24,8 17,5 1016,8 -
13.07.2018 21:00:00 26,7 18,0 1015,8 -
13.07.2018 20:00:00 - - - 0,0
13.07.2018 19:00:00 - - - -
13.07.2018 18:00:00 30,0 18,4 1014,6 -
13.07.2018 17:00:00 - - - -
13.07.2018 16:00:00 30,2 18,6 1014,7 -
13.07.2018 15:00:00 30,7 - 1015,0 -
13.07.2018 14:00:00 29,7 16,1 1015,8 0,0
13.07.2018 13:00:00 28,4 17,8 1016,5 -
13.07.2018 12:00:00 26,4 17,9 1017,3 -
13.07.2018 11:00:00 24,7 17,1 1018,0 -
13.07.2018 10:00:00 22,8 18,5 1018,7 -
13.07.2018 09:00:00 20,9 20,0 1018,9 -
13.07.2018 08:00:00 18,2 18,1 1019,0 0,0
13.07.2018 07:00:00 17,9 17,8 1018,9 -
13.07.2018 06:00:00 18,1 18,0 1018,6 -
13.07.2018 05:00:00 18,5 18,4 1018,4 -
13.07.2018 04:00:00 18,5 18,4 1018,0 -
13.07.2018 03:00:00 18,7 18,6 1018,1 -
13.07.2018 02:00:00 18,9 18,8 1017,8 0,0
13.07.2018 01:00:00 19,2 19,1 1017,7 -
13.07.2018 00:00:00 19,4 19,2 1017,7 -
12.07.2018 23:00:00 19,9 18,5 1016,8 -
12.07.2018 22:00:00 24,2 16,4 1015,2 -
12.07.2018 21:00:00 26,2 17,2 1013,6 -
12.07.2018 20:00:00 26,8 17,2 1013,0 0,0
12.07.2018 19:00:00 27,5 17,9 1012,5 -
12.07.2018 18:00:00 27,9 18,0 1012,5 -
12.07.2018 17:00:00 27,8 18,4 1012,7 -
12.07.2018 16:00:00 26,9 17,6 1013,1 -
12.07.2018 15:00:00 26,6 18,1 1013,3 -
12.07.2018 14:00:00 26,1 17,7 1013,9 0,0
12.07.2018 13:00:00 25,9 16,4 1014,3 -
12.07.2018 12:00:00 25,0 15,3 1014,5 -
12.07.2018 11:00:00 24,3 14,0 1014,7 -
12.07.2018 10:00:00 23,5 13,3 1015,2 -
12.07.2018 09:00:00 22,3 14,3 1015,3 -
12.07.2018 08:00:00 20,6 18,8 1015,1 -
12.07.2018 07:00:00 19,4 17,8 1014,9 -
12.07.2018 06:00:00 19,3 17,4 1014,6 -
12.07.2018 05:00:00 19,8 17,5 1014,6 -
12.07.2018 04:00:00 20,2 17,5 1014,3 -
12.07.2018 03:00:00 21,2 18,1 1014,3 -
12.07.2018 02:00:00 20,6 17,0 1014,1 0,0
12.07.2018 01:00:00 22,2 17,5 1013,9 -
12.07.2018 00:00:00 22,9 17,3 1013,5 -
11.07.2018 23:00:00 22,9 15,2 1012,9 -
11.07.2018 22:00:00 23,8 15,2 1012,0 -
11.07.2018 21:00:00 25,0 15,8 1010,8 -
11.07.2018 20:00:00 25,8 16,3 1010,1 0,0
11.07.2018 19:00:00 26,6 16,5 1009,7 -
11.07.2018 18:00:00 28,0 17,2 1009,3 -
11.07.2018 17:00:00 28,1 17,6 1009,1 -
11.07.2018 16:00:00 27,2 16,4 1009,3 -
11.07.2018 15:00:00 26,3 17,0 1009,9 -
11.07.2018 14:00:00 25,7 16,7 1010,4 0,0
11.07.2018 13:00:00 24,7 18,3 1011,0 -
11.07.2018 12:00:00 22,6 19,3 1011,6 -
11.07.2018 11:00:00 23,1 18,4 1011,6 -
11.07.2018 10:00:00 22,5 18,6 1011,8 -
11.07.2018 09:00:00 20,5 19,4 1012,4 -
11.07.2018 08:00:00 18,9 18,8 1012,7 0,0
11.07.2018 07:00:00 18,2 18,1 1012,6 -
11.07.2018 06:00:00 17,9 17,8 1012,5 -
11.07.2018 05:00:00 18,0 17,9 1012,3 -
11.07.2018 04:00:00 18,1 18,0 1012,6 -
11.07.2018 03:00:00 18,1 18,0 1012,7 -
11.07.2018 02:00:00 18,6 18,5 1012,9 0,0
11.07.2018 01:00:00 18,8 18,7 1013,3 -
11.07.2018 00:00:00 18,9 18,5 1013,0 -
10.07.2018 23:00:00 19,0 18,1 1013,4 -
10.07.2018 22:00:00 20,1 17,8 1013,2 -
10.07.2018 21:00:00 21,1 16,6 1012,2 -
10.07.2018 20:00:00 23,7 15,4 1010,9 0,0
10.07.2018 19:00:00 26,6 15,6 1009,3 -
10.07.2018 18:00:00 27,1 16,0 1009,3 -
10.07.2018 17:00:00 27,0 15,9 1009,7 -
10.07.2018 16:00:00 29,4 15,1 1010,5 -
10.07.2018 15:00:00 27,8 16,7 1011,4 -
10.07.2018 14:00:00 25,1 13,2 1012,6 0,0
10.07.2018 13:00:00 27,9 14,5 1011,8 -
10.07.2018 12:00:00 27,5 16,4 1012,3 -
10.07.2018 11:00:00 26,3 17,0 1013,3 -
10.07.2018 10:00:00 24,9 16,8 1013,9 -
10.07.2018 09:00:00 24,0 16,2 1014,2 -
10.07.2018 08:00:00 21,3 18,4 1014,7 -
10.07.2018 07:00:00 19,7 17,0 1015,0 -
10.07.2018 06:00:00 19,1 15,7 1015,0 -
10.07.2018 05:00:00 20,0 16,0 1015,1 -
10.07.2018 04:00:00 20,2 16,2 1015,2 -
10.07.2018 03:00:00 20,4 16,0 1015,4 -
10.07.2018 02:00:00 20,9 15,4 1015,7 0,0
10.07.2018 01:00:00 21,5 14,3 1015,5 -
10.07.2018 00:00:00 22,9 14,6 1015,4 -
09.07.2018 23:00:00 24,9 14,6 1014,9 -
09.07.2018 22:00:00 26,4 14,4 1014,5 -
09.07.2018 21:00:00 27,3 14,9 1013,6 -

tt = temperature
td = dewpoint
ppp = reduced air pressure
rr = precipitation

Next stations